Voltar ao catálogo

IRIDIUM 33 DEB

AtivoPO
NORAD 36390·DEBRIS·🇺🇸 United States

Lançado Sep 14, 1997 de Baikonur Cosmodrome

Loading…

Próximas Passagens (próximas 24 horas)

TLE

AtualizadoSource: Space-Track

Época: Sep 13, 2026, 12:06 UTC

1 36390U 97051VU  26256.50484225  .00004603  00000-0  64949-3 0  9992
2 36390  86.2946 173.1149 0027169 300.0979  59.7547 14.76771023703136

Acompanhe IRIDIUM 33 DEB em tempo real com AllMySat

Download on the App Store